This is the latest recevied weather packets stored in our database for station/object NorthRyde. If no packets are shown the sender has not sent any weather packets the latest 10 day(s).
| Time | Temp. | Humidity | Pressure | Rain* | Wind** | Luminosity | Snow |
|---|---|---|---|---|---|---|---|
| 1777271858 | 21.67° C | 66% | 1024.7 hPa | 0 mm | - | 56 W/m² | - |
| 1777271839 | 21.67° C | 65% | 1024.7 hPa | 0 mm | - | 62 W/m² | - |
| 1777271820 | 21.67° C | 65% | 1024.7 hPa | 0 mm | - | 70 W/m² | - |
| 1777271654 | 21.67° C | 65% | 1024.7 hPa | 0 mm | - | 72 W/m² | - |
| 1777271589 | 21.67° C | 65% | 1024.7 hPa | 0 mm | - | 77 W/m² | - |
| 1777271530 | 22.22° C | 65% | 1024.7 hPa | 0 mm | - | 81 W/m² | - |
| 1777271469 | 22.22° C | 65% | 1024.7 hPa | 0 mm | - | 79 W/m² | - |
| 1777271411 | 22.22° C | 65% | 1024.7 hPa | 0 mm | - | 81 W/m² | - |
| 1777271365 | 22.22° C | 65% | 1024.7 hPa | 0 mm | - | 84 W/m² | - |
| 1777271285 | 22.22° C | 65% | 1024.7 hPa | 0 mm | - | 84 W/m² | - |
| 1777271226 | 22.22° C | 65% | 1024.7 hPa | 0 mm | - | 84 W/m² | - |
| 1777271160 | 22.22° C | 65% | 1024.7 hPa | 0 mm | - | 84 W/m² | - |
| 1777271094 | 22.22° C | 64% | 1024.6 hPa | 0 mm | - | 88 W/m² | - |
| 1777271035 | 22.22° C | 64% | 1024.6 hPa | 0 mm | - | 93 W/m² | - |
| 1777270969 | 22.22° C | 64% | 1024.8 hPa | 0 mm | - | 95 W/m² | - |
| 1777270909 | 22.22° C | 64% | 1024.6 hPa | 0 mm | - | 95 W/m² | - |
| 1777270842 | 22.22° C | 64% | 1024.7 hPa | 0 mm | - | 98 W/m² | - |
| 1777270781 | 22.22° C | 63% | 1024.5 hPa | 0 mm | - | 100 W/m² | - |
| 1777270718 | 22.22° C | 63% | 1024.6 hPa | 0 mm | - | 100 W/m² | - |
| 1777270658 | 22.22° C | 63% | 1024.6 hPa | 0 mm | - | 104 W/m² | - |
| 1777270601 | 22.22° C | 63% | 1024.6 hPa | 0 mm | - | 105 W/m² | - |
| 1777270537 | 22.22° C | 63% | 1024.6 hPa | 0 mm | - | 107 W/m² | - |
| 1777270478 | 22.78° C | 63% | 1024.7 hPa | 0 mm | - | 111 W/m² | - |
| 1777270416 | 22.78° C | 63% | 1024.6 hPa | 0 mm | - | 118 W/m² | - |
| 1777270360 | 22.78° C | 63% | 1024.6 hPa | 0 mm | - | 121 W/m² | - |
* Rain latest hour (hover to see other rain measurements)
** Current wind speed in m/s (hover to see current wind gust speed)